This is the latest recevied weather packets stored in our database for station/object OM1PU-6. If no packets are shown the sender has not sent any weather packets the latest 10 day(s).
| Time | Temp. | Humidity | Pressure | Rain* | Wind** | Luminosity | Snow |
|---|---|---|---|---|---|---|---|
| 1777515494 | 2.78° C | 61% | 1040.2 hPa | 0 mm | - | - | - |
| 1777514593 | 3.33° C | 59% | 1040.4 hPa | 0 mm | - | - | - |
| 1777513694 | 3.89° C | 58% | 1040.1 hPa | 0 mm | - | - | - |
| 1777512794 | 3.33° C | 58% | 1040.4 hPa | 0 mm | - | - | - |
| 1777511894 | 3.33° C | 59% | 1040 hPa | 0 mm | - | - | - |
| 1777510993 | 3.33° C | 60% | 1040.1 hPa | 0 mm | - | - | - |
| 1777510094 | 3.33° C | 58% | 1040.1 hPa | 0 mm | - | - | - |
| 1777509193 | 3.33° C | 58% | 1040 hPa | 0 mm | - | - | - |
| 1777508294 | 3.89° C | 57% | 1039.9 hPa | 0 mm | - | - | - |
| 1777507393 | 3.89° C | 56% | 1039.8 hPa | 0 mm | - | - | - |
| 1777506495 | 4.44° C | 55% | 1039.8 hPa | 0 mm | - | - | - |
| 1777505593 | 5° C | 53% | 1039.6 hPa | 0 mm | - | - | - |
| 1777504693 | 5° C | 52% | 1039.8 hPa | 0 mm | - | - | - |
| 1777503794 | 5° C | 51% | 1039.7 hPa | 0 mm | - | - | - |
| 1777502894 | 5.56° C | 50% | 1039.6 hPa | 0 mm | - | - | - |
| 1777501993 | 5.56° C | 49% | 1039.5 hPa | 0 mm | - | - | - |
| 1777501093 | 6.11° C | 47% | 1039.5 hPa | 0 mm | - | - | - |
| 1777500194 | 6.11° C | 46% | 1039.3 hPa | 0 mm | - | - | - |
| 1777499294 | 6.11° C | 46% | 1039 hPa | 0 mm | - | - | - |
| 1777498394 | 6.67° C | 44% | 1038.8 hPa | 0 mm | - | - | - |
| 1777497493 | 6.67° C | 44% | 1038.5 hPa | 0 mm | - | - | - |
| 1777496593 | 6.67° C | 42% | 1038.2 hPa | 0 mm | - | - | - |
| 1777495693 | 7.22° C | 42% | 1038 hPa | 0 mm | - | - | - |
| 1777494794 | 7.22° C | 40% | 1038 hPa | 0 mm | - | - | - |
| 1777493893 | 7.78° C | 39% | 1037.8 hPa | 0 mm | - | - | - |
* Rain latest 24 hours (hover to see other rain measurements)
** Current wind speed in m/s (hover to see current wind gust speed)